|  軌道要素
Epoch 2012 July 12.0 TT = JDT 2456120.5
T 2012 July 20.42827 TT                                 MPC
q   1.1772255            (2000.0)            P               Q
n   0.19755743     Peri.   15.35505     +0.44568153     +0.82796049
a   2.9197151      Node   282.15333     -0.85362797     +0.27856074
e   0.5968012      Incl.   20.37542     -0.26960575     +0.48670869
P   4.99
From 666 observations 2002 July 30-2012 June 25, mean residual 0".7.
     Nongravitational parameters A1 = -0.06, A2 = -0.0049.
 |